Theta_e
318 319 319 319 319 318 316 320 320 319 318 318 316 315 314 314 312 311 311 312 313 314 315 317 318 317 317 317 318 319 320 322 326 326 326 328 329 329 330 330 330 330 330 330
318 317 314 315 317 320 320 321 320 318 317 317 316 317 315 315 315 312 312 312 311 312 311 311 314 315 315 314 315 317 319 320 323 325 326 326 327 328 328 328 328 328 329 329
315 313 312 316 318 319 320 319 319 319 317 316 312 312 311 310 310 310 310 311 310 310 310 309 310 312 312 312 313 314 317 319 320 322 324 324 325 327 327 327 327 328 327 328
316 314 314 315 317 317 319 317 319 320 320 319 313 317 311 310 310 310 309 307 307 306 305 305 306 308 310 312 313 314 314 315 317 320 323 324 324 324 326 326 326 327 327 327
312 314 315 316 316 316 316 316 318 318 318 316 315 316 312 309 311 310 308 306 305 305 305 306 304 307 309 310 312 315 316 314 316 320 323 324 324 324 325 324 325 325 325 326
311 310 311 312 314 315 316 317 317 316 315 317 313 314 311 311 309 308 307 306 307 309 303 302 305 306 307 308 309 310 310 311 316 319 323 324 324 324 324 325 325 325 325 325
312 312 310 312 315 315 317 318 311 312 317 314 310 312 312 309 307 306 307 306 305 307 304 303 304 306 308 309 310 311 311 311 311 311 310 315 321 324 324 324 324 325 325 325
311 311 311 310 313 314 316 316 311 310 314 311 311 314 310 309 308 308 307 305 305 306 303 303 305 306 305 305 306 308 309 309 309 309 309 309 309 308 309 316 323 325 325 325
309 309 308 309 311 312 314 319 311 310 306 309 310 309 308 308 309 308 308 308 308 303 303 305 304 303 302 302 302 303 304 304 305 306 306 307 307 306 306 306 306 306 311 321
307 310 307 309 311 312 313 311 317 317 313 312 311 311 312 309 308 306 308 309 303 304 305 304 301 301 301 301 301 300 300 300 301 302 302 303 303 304 305 305 305 305 305 305
307 308 310 310 312 311 315 315 314 312 310 312 309 308 304 308 308 307 305 304 302 306 305 301 299 299 299 299 299 298 299 299 299 300 300 301 302 302 302 303 303 303 304 304
308 308 307 311 310 311 311 314 313 313 310 311 311 311 306 305 306 306 307 305 303 305 303 299 298 298 298 297 297 296 297 297 297 297 298 298 298 299 300 300 300 301 301 302
309 311 307 305 307 309 312 311 314 314 310 313 314 311 305 305 307 309 308 305 305 303 300 298 298 297 297 296 295 295 295 295 295 296 296 297 297 297 297 297 297 298 299 301
310 309 309 310 307 307 312 311 311 314 316 314 314 312 309 309 307 309 309 307 305 302 300 299 297 296 295 295 294 294 294 294 294 294 294 294 294 293 294 296 296 295 295 296
310 307 307 308 307 309 309 310 311 313 314 314 312 311 310 307 308 307 306 307 306 304 301 299 298 295 295 294 294 294 293 293 293 294 293 291 290 290 290 291 292 292 292 293
307 306 305 307 308 307 307 309 309 311 313 313 312 312 309 307 304 304 304 304 306 305 302 299 297 295 294 293 293 292 292 291 291 292 291 291 290 289 289 289 290 290 291 292
307 306 309 310 308 306 310 308 309 309 310 311 312 311 310 308 307 306 306 304 305 305 302 298 295 293 293 291 290 290 290 290 289 289 287 288 289 289 289 289 290 290 291 291
309 307 309 310 300 311 307 305 307 308 308 309 310 310 309 309 307 305 303 306 305 303 301 296 293 291 290 289 289 289 289 289 288 287 287 288 288 289 290 290 290 290 291 291
306 308 310 311 311 307 305 305 306 307 308 307 307 309 309 307 305 305 303 302 303 301 296 293 293 291 289 288 288 288 288 286 285 285 285 285 286 287 288 289 290 291 291 291
305 307 309 309 310 310 307 305 302 305 309 307 306 308 308 305 309 309 303 298 295 293 291 289 289 288 287 286 286 286 285 284 282 282 282 283 284 285 286 287 289 290 291 292
306 309 310 311 311 305 304 301 303 310 309 306 304 306 306 306 307 304 295 291 290 289 288 288 287 285 284 284 284 283 283 281 281 281 282 282 283 283 284 284 287 288 290 291
303 305 307 309 309 309 301 301 306 306 301 301 301 300 301 302 297 294 292 289 287 286 285 285 284 282 281 281 281 280 280 279 279 279 280 280 281 281 282 282 284 284 287 289
305 306 304 308 308 306 303 305 304 301 301 300 300 299 298 296 294 291 288 287 286 284 283 284 282 280 278 278 278 278 277 277 277 277 278 279 280 280 280 280 281 282 285 287
301 301 303 304 304 302 300 301 299 299 299 300 299 297 295 295 291 289 287 286 284 282 281 280 280 278 276 276 276 275 275 275 275 275 276 276 277 278 279 279 279 281 283 283
300 300 302 301 303 300 298 297 298 297 297 296 294 293 294 292 290 288 286 283 281 279 278 278 277 275 274 274 274 273 274 274 274 274 274 274 274 275 276 277 277 279 280 281
298 302 304 303 302 304 302 299 296 298 298 295 291 289 289 290 288 284 282 280 279 276 275 274 273 273 272 272 272 272 272 272 273 273 272 272 273 273 273 273 275 277 278 279
Wind_Speed
1 3 7 7 5 2 4 1 3 3 4 3 7 8 11 12 6 10 11 9 11 14 20 27 29 24 20 19 19 19 23 28 28 31 31 31 37 37 39 41 40 38 38 39
2 9 4 2 3 2 3 1 3 6 3 2 8 16 17 17 16 11 13 14 13 9 8 16 23 25 26 26 24 22 21 22 24 28 31 29 22 30 37 37 38 39 40 40
5 3 9 4 3 9 11 15 4 7 6 4 7 9 11 7 4 6 10 16 9 10 11 9 15 27 24 19 19 21 24 22 21 24 27 24 26 22 23 30 34 38 38 38
5 4 5 5 4 6 6 6 5 4 5 4 5 8 5 6 7 5 10 8 9 9 8 9 13 20 16 13 10 12 15 19 20 21 25 28 28 24 35 32 33 33 33 33
5 5 8 5 6 7 5 5 7 5 4 4 3 4 5 4 5 11 9 7 8 8 7 9 9 8 1 3 5 1 5 11 14 17 21 25 28 29 31 25 25 28 30 30
4 2 5 8 4 10 4 4 2 2 2 7 8 7 3 4 5 4 4 6 5 5 6 7 11 14 13 13 15 14 14 14 7 4 10 19 23 25 26 29 28 29 29 31
3 4 0 3 5 1 5 4 0 1 3 6 0 4 5 9 8 7 8 10 6 4 6 7 7 12 15 16 14 13 12 14 11 9 6 1 10 17 22 25 27 28 30 31
6 3 11 6 7 7 10 7 5 8 5 4 1 7 6 5 8 9 7 8 6 4 4 6 7 10 13 14 14 13 13 12 10 9 8 6 6 7 9 13 18 23 26 29
5 5 1 4 4 8 4 11 5 5 1 2 4 7 8 9 10 6 4 5 5 6 5 6 8 9 10 12 13 12 10 9 9 9 9 8 8 9 11 13 14 17 20 24
5 1 4 7 3 3 6 6 4 3 2 5 4 5 7 8 8 7 5 6 4 6 7 5 6 8 9 11 10 11 11 10 10 10 10 10 10 11 13 14 15 16 18 20
5 3 1 7 7 15 7 7 4 5 5 4 2 5 7 9 5 8 9 7 8 7 7 5 4 8 8 9 11 12 12 12 12 12 12 11 12 13 14 15 16 17 18 19
7 3 4 8 2 2 13 6 7 4 4 4 3 12 1 4 5 5 0 2 5 7 8 5 5 4 6 7 9 11 12 13 14 13 12 13 14 15 16 17 19 20 21 20
9 4 2 6 4 3 6 14 11 12 2 13 7 10 5 6 5 4 5 7 9 7 6 5 4 3 3 5 8 10 12 14 14 15 15 16 17 17 18 19 20 22 23 23
14 4 7 10 5 5 6 8 20 15 12 19 14 26 13 2 6 6 5 5 6 7 8 5 4 3 3 3 5 9 10 11 14 15 17 19 20 20 20 20 21 22 23 23
10 6 7 12 3 3 5 9 15 17 25 17 28 21 27 10 9 8 6 5 6 8 8 7 5 4 4 1 3 7 9 10 12 14 18 19 19 19 18 19 20 21 20 21
5 7 6 10 12 11 3 4 10 20 26 19 27 23 30 6 8 9 9 8 9 12 11 8 7 7 4 1 3 6 7 10 12 13 13 16 20 19 19 20 20 20 21 22
6 7 6 16 9 5 7 18 21 14 17 18 19 30 29 15 14 15 16 11 13 14 9 10 10 10 7 4 1 3 5 7 9 12 14 17 19 20 21 21 20 21 23 23
5 6 8 10 3 16 10 13 19 23 24 19 18 22 25 20 13 11 12 16 16 8 9 8 12 13 10 5 1 2 4 5 7 9 13 16 17 19 20 20 21 22 23 24
12 9 6 5 8 12 7 7 12 11 23 27 18 26 33 5 4 7 14 12 13 11 6 13 18 15 11 5 2 2 3 2 6 11 14 16 17 17 18 20 20 21 22 23
11 11 10 10 12 16 13 25 5 5 12 20 24 27 28 8 6 19 8 7 6 11 17 20 18 16 11 6 4 3 2 4 8 12 14 16 17 17 18 19 20 20 20 21
5 7 15 13 11 7 10 3 7 12 11 19 12 22 26 12 20 8 6 5 10 12 19 20 17 15 10 6 4 3 2 6 9 12 13 15 16 16 16 19 19 19 19 20
9 7 6 7 10 19 7 4 14 12 5 5 5 9 8 10 4 4 7 10 11 13 16 18 17 14 9 5 4 3 2 5 8 12 12 14 16 17 19 20 21 18 17 16
5 11 7 9 7 7 7 10 19 8 7 8 7 6 6 7 6 6 6 9 9 14 13 15 17 15 8 5 4 4 5 9 12 13 15 16 16 17 19 20 22 17 15 15
4 3 4 3 15 8 9 13 7 9 8 3 2 6 10 6 8 8 8 8 7 11 12 13 13 10 6 4 4 5 5 10 12 14 16 17 19 20 20 21 18 14 14 17
5 6 7 6 13 3 10 10 6 2 2 2 2 5 7 11 7 9 9 9 11 12 11 9 9 6 4 3 5 5 8 10 12 14 16 19 21 22 23 21 17 16 18 15
7 9 6 12 12 11 9 6 8 8 9 8 7 4 3 7 15 10 5 10 13 13 10 8 6 4 3 4 4 6 8 10 13 16 18 20 22 24 23 22 27 19 15 17
Wind_Direction
236 183 200 193 195 139 100 266 265 287 282 295 261 274 266 274 274 264 271 253 259 259 260 271 276 273 270 264 258 252 247 251 241 236 233 232 236 241 248 251 253 253 254 254
125 235 219 93 153 171 148 207 286 282 272 249 293 286 282 268 261 237 252 260 251 256 269 262 267 274 278 278 266 255 248 246 242 238 237 230 238 244 249 253 254 255 256 255
167 225 196 165 143 219 233 245 222 254 320 280 315 275 252 280 255 246 243 250 254 247 261 272 271 276 279 277 270 253 247 247 246 245 239 234 235 245 248 248 252 255 254 255
219 238 144 144 171 164 237 190 194 265 331 262 41 293 259 267 284 278 274 255 253 266 265 264 272 277 285 278 272 258 247 243 243 241 235 235 228 224 249 250 260 261 261 258
227 181 193 174 189 176 212 163 195 202 233 307 205 254 274 335 284 265 270 313 279 272 276 285 266 267 95 87 85 85 224 228 232 237 235 239 238 245 258 260 263 266 268 267
219 319 160 196 164 173 169 208 216 110 180 264 206 186 246 216 214 282 288 322 4 19 24 38 81 107 100 91 83 84 87 83 94 202 231 239 247 256 259 266 268 271 268 268
159 212 328 138 111 126 178 141 222 343 211 232 285 199 261 259 238 227 275 290 300 338 83 68 57 72 78 74 71 71 69 65 60 64 69 255 259 265 268 273 276 277 277 271
169 272 183 187 177 177 191 190 163 196 200 259 352 237 250 233 268 256 256 269 289 254 119 101 82 78 73 68 62 59 55 50 38 33 28 10 343 323 300 286 281 278 276 278
162 257 134 194 152 147 203 210 164 100 3 10 231 289 287 280 289 308 258 278 295 147 146 120 102 85 70 62 54 47 45 38 22 9 357 350 334 320 315 306 300 295 286 282
208 195 204 205 137 220 169 160 191 175 230 245 255 264 236 303 288 308 313 234 145 142 135 137 109 90 72 60 53 44 37 30 13 1 352 346 339 331 324 319 316 309 302 294
175 163 47 135 202 193 180 213 199 174 183 202 274 258 222 237 274 283 296 269 179 165 157 154 108 78 69 60 48 39 31 23 15 9 3 356 352 346 341 335 329 325 318 313
182 166 188 212 195 207 224 213 200 185 233 252 242 254 210 250 260 202 336 59 163 171 161 145 108 93 68 56 43 39 32 27 15 8 5 3 358 352 348 344 339 334 330 325
167 205 124 327 356 15 200 222 221 227 100 226 220 260 339 206 220 251 165 159 163 171 158 155 160 133 81 49 30 28 23 20 12 12 9 6 3 356 355 350 343 339 336 335
173 170 212 219 191 147 201 205 218 214 233 247 240 260 252 326 230 224 177 192 187 185 184 195 190 156 84 51 23 20 15 13 14 14 11 12 7 358 356 354 349 345 342 339
179 215 204 243 258 222 225 210 211 208 230 228 248 246 260 208 203 211 203 190 201 216 214 210 202 184 190 123 17 14 8 7 12 18 14 9 3 357 356 354 351 348 344 341
199 232 171 252 239 229 257 240 217 219 229 237 249 256 256 225 194 226 232 216 218 226 222 198 187 190 186 66 356 353 357 7 9 14 16 10 8 1 356 352 349 347 346 343
186 200 184 244 227 145 238 233 232 238 234 224 233 243 264 251 219 218 229 221 226 231 205 190 185 182 182 175 243 356 8 8 11 13 8 12 9 6 1 355 350 348 346 342
189 217 221 243 93 241 235 235 227 233 239 236 241 256 256 252 238 221 216 223 231 210 195 178 161 165 167 169 134 55 21 13 6 4 8 5 3 358 356 355 351 348 349 349
217 228 254 250 239 254 298 247 198 198 242 239 233 243 253 246 106 261 226 217 220 206 170 156 168 160 153 142 98 78 65 25 11 11 5 0 357 349 346 346 344 345 346 348
213 216 227 235 242 256 242 244 196 107 247 250 220 241 258 131 211 250 183 182 151 134 139 139 149 145 143 127 127 133 117 17 12 1 357 355 352 347 339 335 336 338 341 340
186 208 233 242 245 254 250 115 125 190 231 247 190 227 244 206 226 248 114 81 109 122 130 141 141 134 126 116 128 104 58 15 354 349 346 348 348 342 340 333 332 329 333 338
177 175 208 229 244 257 149 6 200 211 217 206 209 238 216 219 141 134 131 134 128 127 130 140 131 127 119 114 122 117 62 350 339 340 340 342 345 346 342 338 337 329 320 321
222 210 224 195 214 218 175 217 241 203 201 210 194 196 175 153 164 141 132 129 126 127 126 142 137 133 115 88 55 35 358 337 334 338 341 343 346 348 345 342 338 333 330 326
251 163 219 63 248 223 220 227 246 202 221 173 221 197 156 166 151 139 133 128 121 120 123 134 135 130 111 60 42 18 339 334 336 339 345 343 345 347 347 345 346 323 328 329
212 148 222 254 259 339 258 225 256 236 211 187 152 215 163 132 142 147 134 128 125 123 126 122 116 109 90 30 20 358 342 337 341 344 345 343 345 344 342 341 338 320 317 316
181 213 208 251 252 216 246 195 167 192 228 220 175 124 53 143 137 112 100 119 127 126 129 116 100 85 34 12 13 350 342 345 347 348 345 344 344 341 339 336 333 332 315 315